Le nostre stazioni meteo in Italia

Pubblicità
Il mio iltempo24.it
Decimomannu, Italia (16546): Temperatura & dewpoint: 09.09.2019 21:00:00 - 15.09.2019 21:00:00 (CEST)Decimomannu, Italia (16546): velocità del vento: 09.09.2019 21:00:00 - 15.09.2019 21:00:00 (CEST)Decimomannu, Italia (16546): direzione del vento: 09.09.2019 21:00:00 - 15.09.2019 21:00:00 (CEST)Decimomannu, Italia (16546): reduced air pressure: 09.09.2019 21:00:00 - 15.09.2019 21:00:00 (CEST)Decimomannu, Italia (16546): visibility: 09.09.2019 21:00:00 - 15.09.2019 21:00:00 (CEST)
Data & Tempo tt [°C] td [°C] ff [km/h] ff [kn] dd ppp [hPa] vv [km]
15.09.2019 21:00:00 - - - - - - -
15.09.2019 20:00:00 25,8 22,5 16 9 SSE 1019,9 20
15.09.2019 19:00:00 27,0 22,0 18 10 SSE - 10
15.09.2019 18:00:00 27,0 17,0 16 9 SSE - 10
15.09.2019 17:00:00 28,0 21,5 18 10 SSE 1020,8 20
15.09.2019 16:00:00 29,0 21,0 22 12 SSE - 10
15.09.2019 15:00:00 30,0 21,0 18 10 SSE - 10
15.09.2019 14:00:00 30,0 21,9 16 9 SSE 1022,1 20
15.09.2019 13:00:00 29,0 22,0 18 10 SSE - 10
15.09.2019 12:00:00 28,0 23,0 15 8 SSE - 10
15.09.2019 11:00:00 27,4 21,9 21 11 SE 1023,7 20
15.09.2019 10:00:00 25,0 20,0 5 3 ESE - 10
15.09.2019 09:00:00 21,0 18,0 5 3 NNO - 10
15.09.2019 08:00:00 19,0 15,7 2 1 NNE 1022,8 12
15.09.2019 07:00:00 19,0 16,0 4 2 N - 10
15.09.2019 06:00:00 20,0 16,0 5 3 NO - 10
15.09.2019 05:00:00 19,6 16,4 8 4 O 1024,0 15
15.09.2019 04:00:00 20,0 17,0 9 5 O - 10
15.09.2019 03:00:00 21,0 18,0 9 5 NNE - 10
15.09.2019 02:00:00 21,6 18,0 9 5 NNE 1022,4 25
15.09.2019 01:00:00 22,0 18,0 8 4 N - 10
15.09.2019 00:00:00 22,0 18,0 8 4 NE - 10
14.09.2019 23:00:00 23,0 19,6 4 2 E 1023,0 15
14.09.2019 22:00:00 24,0 21,0 5 3 SE - 10
14.09.2019 21:00:00 25,0 21,0 8 4 S - 10
14.09.2019 20:00:00 26,0 22,5 8 4 SSE 1022,5 20
14.09.2019 19:00:00 28,0 22,0 13 7 SSE - 10
14.09.2019 18:00:00 29,0 21,0 21 11 SSE - 10
14.09.2019 17:00:00 30,0 20,8 22 12 SSE 1022,2 20
14.09.2019 16:00:00 31,0 20,0 18 10 S - 10
14.09.2019 15:00:00 31,0 21,0 21 11 S - 10
14.09.2019 14:00:00 30,8 20,1 15 8 SSE 1023,6 20
14.09.2019 13:00:00 30,0 19,0 11 6 SSE - 10
14.09.2019 12:00:00 30,0 18,0 9 5 SE - 10
14.09.2019 11:00:00 28,2 17,7 8 4 S 1024,7 20
14.09.2019 10:00:00 26,0 18,0 4 2 E - 10
14.09.2019 09:00:00 21,0 17,0 4 2 NO - 10
14.09.2019 08:00:00 19,0 15,5 4 2 O 1024,1 20
14.09.2019 07:00:00 19,0 15,0 8 4 NNE - 10
14.09.2019 06:00:00 19,0 15,0 8 4 N - 10
14.09.2019 05:00:00 18,8 15,3 0 0 N 1023,7 20
14.09.2019 04:00:00 19,0 15,0 5 3 ENE - 10
14.09.2019 03:00:00 20,0 17,0 4 2 N - 10
14.09.2019 02:00:00 20,4 17,2 2 1 N 1024,6 20
14.09.2019 01:00:00 22,0 20,0 4 2 N - 10
14.09.2019 00:00:00 22,0 19,0 8 4 NE - 10
13.09.2019 23:00:00 23,0 20,0 4 2 NE 1024,6 20
13.09.2019 22:00:00 24,0 21,0 4 2 E - 10
13.09.2019 21:00:00 25,0 21,0 9 5 SSE - 10
13.09.2019 20:00:00 25,8 22,1 11 6 SSE 1023,8 20
13.09.2019 19:00:00 27,0 21,0 18 10 S - 10
13.09.2019 18:00:00 29,0 26,0 21 11 S - 10
13.09.2019 17:00:00 30,0 20,8 18 10 S 1024,0 20
13.09.2019 16:00:00 30,0 21,0 21 11 S - 10
13.09.2019 15:00:00 32,0 19,0 15 8 S - 10
13.09.2019 14:00:00 31,4 18,7 13 7 S 1024,9 20
13.09.2019 13:00:00 31,0 18,0 9 5 SE - 10
13.09.2019 12:00:00 30,0 14,0 15 8 SSE - 10
13.09.2019 11:00:00 27,8 16,4 9 5 SSE 1025,3 20
13.09.2019 10:00:00 24,0 17,0 4 2 SSO - 10
13.09.2019 09:00:00 20,0 16,0 2 1 SSE - 10
13.09.2019 08:00:00 17,6 14,3 4 2 N 1024,8 15
13.09.2019 07:00:00 18,0 15,0 4 2 N - 10
13.09.2019 06:00:00 18,0 15,0 8 4 O - 10
13.09.2019 05:00:00 18,0 14,7 9 5 NO 1024,2 20
13.09.2019 04:00:00 18,0 15,0 4 2 NO - 10
13.09.2019 03:00:00 20,0 17,0 4 2 NNE - 10
13.09.2019 02:00:00 20,0 16,7 5 3 NNO 1025,5 20
13.09.2019 01:00:00 21,0 17,0 8 4 NE - 10
13.09.2019 00:00:00 22,0 18,0 5 3 ESE - 10
12.09.2019 23:00:00 23,0 19,8 9 5 SE 1025,6 20
12.09.2019 22:00:00 24,0 21,0 5 3 SSE - 10
12.09.2019 21:00:00 25,0 22,0 8 4 S - 10
12.09.2019 20:00:00 26,0 23,1 16 9 S 1024,3 30
12.09.2019 19:00:00 27,0 23,0 15 8 S - 10
12.09.2019 18:00:00 29,0 25,0 18 10 SSE - 10
12.09.2019 17:00:00 30,0 24,2 24 13 SSE 1023,5 20
12.09.2019 16:00:00 31,0 24,0 24 13 SSE - 10
12.09.2019 15:00:00 31,0 23,0 16 9 SSE - 10
12.09.2019 14:00:00 32,0 21,2 9 5 SE 1023,7 20
12.09.2019 13:00:00 30,0 20,0 5 3 NE - 10
12.09.2019 12:00:00 30,0 21,0 8 4 N - 10
12.09.2019 11:00:00 26,8 20,9 5 3 N 1024,5 20
12.09.2019 10:00:00 25,0 21,0 5 3 OSO - 10
12.09.2019 09:00:00 21,0 19,0 4 2 NO - 10
12.09.2019 08:00:00 19,0 15,9 4 2 ENE 1023,2 15
12.09.2019 07:00:00 19,0 16,0 8 4 O - 10
12.09.2019 06:00:00 19,0 16,0 2 1 O - 10
12.09.2019 05:00:00 20,0 16,7 4 2 NNO 1021,7 15
12.09.2019 04:00:00 20,0 17,0 5 3 N - 10
12.09.2019 03:00:00 21,0 18,0 4 2 NNO - 10
12.09.2019 02:00:00 20,8 17,8 9 5 O 1020,9 10
12.09.2019 01:00:00 22,0 19,0 4 2 N - 10
12.09.2019 00:00:00 23,0 20,0 8 4 O - 10
11.09.2019 23:00:00 23,4 20,3 2 1 ENE 1020,5 15
11.09.2019 22:00:00 24,0 21,0 9 5 SE - 10
11.09.2019 21:00:00 25,0 22,0 4 2 NNE - 10
11.09.2019 20:00:00 26,4 22,2 4 2 NNE 1018,0 15
11.09.2019 19:00:00 27,0 22,0 9 5 S - 10
11.09.2019 18:00:00 28,0 23,0 15 8 S - 10
11.09.2019 17:00:00 28,2 22,9 16 9 SSE 1017,3 30
11.09.2019 16:00:00 29,0 22,0 18 10 SSE - 10
11.09.2019 15:00:00 29,0 22,0 16 9 S - 10
11.09.2019 14:00:00 30,0 20,5 16 9 ESE 1016,5 30
11.09.2019 13:00:00 30,0 21,0 18 10 ESE - 10
11.09.2019 12:00:00 29,0 22,0 21 11 SSE - 10
11.09.2019 11:00:00 27,6 21,2 13 7 ESE 1015,3 30
11.09.2019 10:00:00 25,0 21,0 16 9 SO - 10
11.09.2019 09:00:00 21,0 18,0 4 2 ENE - 10
11.09.2019 08:00:00 21,0 17,6 4 2 OSO 1013,9 10
11.09.2019 07:00:00 21,0 18,0 9 5 NE - 10
11.09.2019 06:00:00 21,0 18,0 11 6 NNO - 10
11.09.2019 05:00:00 21,0 17,8 8 4 NNE 1011,8 15
11.09.2019 04:00:00 21,0 18,0 9 5 NNE - 10
11.09.2019 03:00:00 22,0 18,0 9 5 ENE - 10
11.09.2019 02:00:00 21,6 18,4 5 3 ESE 1011,8 15
11.09.2019 01:00:00 21,0 18,0 9 5 NE - 10
11.09.2019 00:00:00 22,0 19,0 9 5 NE - 10
10.09.2019 23:00:00 22,0 19,0 5 3 ENE 1010,7 15
10.09.2019 22:00:00 22,0 19,0 8 4 E - 10
10.09.2019 21:00:00 23,0 20,0 5 3 E - 10
10.09.2019 20:00:00 24,8 21,7 15 8 SSE 1009,8 20
10.09.2019 19:00:00 26,0 22,0 22 12 SSE - 10
10.09.2019 18:00:00 27,0 21,0 22 12 SSE - 10
10.09.2019 17:00:00 27,8 17,0 22 12 SSE 1009,1 20
10.09.2019 16:00:00 28,0 20,0 22 12 SSE - 10
10.09.2019 15:00:00 28,0 19,0 22 12 SSE - 10
10.09.2019 14:00:00 28,2 20,2 22 12 SSE 1010,8 20
10.09.2019 13:00:00 28,0 21,0 21 11 SSE - 10
10.09.2019 12:00:00 27,0 20,0 21 11 SSE - 10
10.09.2019 11:00:00 26,8 20,4 13 7 SSE 1012,6 20
10.09.2019 10:00:00 22,0 17,0 2 1 SE - 10
10.09.2019 09:00:00 19,0 15,0 2 1 O - 10
10.09.2019 08:00:00 16,0 12,9 2 1 ENE 1013,0 20
10.09.2019 07:00:00 16,0 13,0 8 4 ONO - 10
10.09.2019 06:00:00 16,0 13,0 5 3 N - 10
10.09.2019 05:00:00 17,0 14,1 4 2 N 1013,8 18
10.09.2019 04:00:00 17,0 14,0 8 4 ONO - 10
10.09.2019 03:00:00 18,0 15,0 2 1 NO - 10
10.09.2019 02:00:00 18,2 15,5 5 3 N 1015,1 20
10.09.2019 01:00:00 19,0 17,0 9 5 N - 10
10.09.2019 00:00:00 20,0 18,0 5 3 N - 10
09.09.2019 23:00:00 20,8 17,6 11 6 N 1015,8 18
09.09.2019 22:00:00 21,0 17,0 13 7 N - 10
09.09.2019 21:00:00 23,0 18,0 8 4 N - 10

tt = Temperatura
td = dewpoint
ff = velocità del vento
dd = direzione del vento
ppp = reduced air pressure
vv = visibility

Stazioni seguenti

WeatherPro
AMSI
MeteoEarth